Location: Central Falls
(41.8900°N, 71.3929°W)
Time: 11:10:16
(UTC+00:00)

A-11 Canister half - Pass Details

Date: 14 December 2023
Orbit: 1512 x 1687 km, 47.2° (Epoch: 20 February)

Event Time Altitude Azimuth Distance (km) Brightness Sun altitude
Rises 04:24:04 0° 264° (W) 4,699 - -71.0°
Reaches altitude 10° 04:27:07 10° 267° (W) 3,736 - -71.1°
Maximum altitude 04:36:35 68° 350° (N) 1,699 - -71.3°
Drops below altitude 10° 04:46:26 10° 73° (ENE) 3,879 - -71.3°
Sets 04:49:40 0° 76° (ENE) 4,887 - -71.2°
